GALAXY 31 (G-31)

Last updated on Thu Nov 21 2024 00:02:45 GMT+0000 (Coordinated Universal Time)

1 54243U 22153A 24324.62796139 .00000015 00000+0 00000+0 0 9993 2 54243 0.0102 320.6516 0001752 291.8129 271.7596 1.00272338 1377
UTC large
Height (km)
Speed (km/s)
/
Latitude / Longitude
Inclination (degrees)
Orbital Period (minutes)
Azimuth
Elevation
Range (km)
Doppler Factor

Next 0 passes for location: London (51.5072 / 0.1276)

Sorry there are no passes over London.